Terminal Aerodrome Forecast
Issued by NWS Cleveland, OH

Home | Current Version | Previous Version | Graphics & Text | Print | Product List | Glossary On
Versions: 1 2 3 4 5 6 7 8 9 10 11 12 13 14 15 16 17 18 19 20 21 22 23
000
FTUS41 KCLE 312211 AAA
TAFYNG
TAF AMD
KYNG 312211Z 3122/0118 34010KT 5SM -RA BR OVC005
     FM010300 36008KT 6SM BR OVC003
     FM011600 35008KT P6SM OVC008=

USA.gov is the U.S. government's official web portal to all federal, state and local government web resources and services.